Orbital Elements at Epoch 2459000.5 (2020-May-31.0) TDB
Reference: JPL 15 (heliocentric ecliptic J2000)
Element | Value | Uncertainty (1-sigma) | Units |
e | .1526479778177 | 3.8622e-08 | |
a | 2.217010269383985 | 1.1297e-08 | au |
q | 1.878588134961445 | 8.8394e-08 | au |
i | 6.030699388712345 | 4.3472e-06 | deg |
node | 56.77306739570994 | 3.598e-05 | deg |
peri | 319.1222610787297 | 3.929e-05 | deg |
M | 351.3623467702138 | 1.9606e-05 | deg |
tp | 2459029.429654569140 (2020-Jun-28.92965457) | 6.5826e-05 | TDB |
period | 1205.729770324196 3.30 | 9.216e-06 2.523e-08 | d yr |
n | .2985743645553376 | 2.2822e-09 | deg/d |
Q | 2.555432403806524 | 1.3022e-08 | au |
|
| | Orbit Determination Parameters
Additional Information
|